Tracking 19794 objects as of 22-Jul-2019
HD Live streaming from Space Station
objects crossing your sky now

COSMOS 1037

Track COSMOS 1037 now!
10-day predictions
COSMOS 1037 is classified as:


NORAD ID: 11046
Int'l Code: 1978-091D
Perigee: 1,468.8 km
Apogee: 1,488.1 km
Inclination: 74.0 °
Period: 115.4 minutes
Semi major axis: 7849 km
RCS: 0.7202 m2 (medium)
Launch date: October 4, 1978
Source: Commonwealth of Independent States (former USSR) (CIS)
Launch site: PLESETSK MISSILE AND SPACE COMPLEX (PKMTR)
aabbcc
Your satellite tracking list
Your tracking list is empty




NASA's NSSDC Master Catalog

Two Line Element Set (TLE):
1 11046U 78091D   19202.94267736 -.00000005 +00000-0 +75016-4 0  9994
2 11046 074.0352 147.6055 0012320 115.2815 316.2977 12.48369066859130
Source of the keplerian elements: AFSPC